Regional Weather Roundup
Issued by NWS

Home | Current Version | Previous Version | Graphics & Text | Print | Product List | Glossary On
Versions: 1 2 3 4 5 6 7 8 9 10 11 12 13 14 15 16 17 18 19 20 21 22 23 24 25 26 27 28 29 30 31 32 33 34 35 36 37 38 39 40 41 42 43 44 45 46 47 48 49 50
000
ASUS43 KLSX 260410
RWRMO

WEATHER SUMMARY FOR MISSOURI
NATIONAL WEATHER SERVICE SPRINGFIELD MO
1100 PM CDT WED MAY 25 2016

NOTE: "FAIR" INDICATES FEW OR NO CLOUDS BELOW 12,000 FEET WITH NO
       SIGNIFICANT WEATHER AND/OR OBSTRUCTIONS TO VISIBILITY.
       CURRENT SKY AND/OR WEATHER CONDITIONS ARE NOT AVAILABLE FOR
       CHILLICOTHE AND FARMINGTON.

MOZ001>031-035>038-043-044-053-054-260500-
...NORTHERN AND WESTERN MISSOURI...

CITY           SKY/WX    TMP DP  RH WIND       PRES   REMARKS
KANSAS CTY INT CLOUDY    75  69  81 S12       29.86S
KANSAS C DTWN  CLOUDY    79  69  71 S7        29.86S
LEE`S SUMMIT   CLOUDY    76  69  79 S14       29.88S
ST JOSEPH      CLOUDY    76  67  73 S12       29.83F
CHILLICOTHE      N/A     76  66  71 SE5       29.89R
KIRKSVILLE     PTCLDY    71  64  78 S6        29.92R

$$
MOZ066>068-077>081-088>096-101>105-260500-
...SOUTHWEST MISSOURI...

CITY           SKY/WX    TMP DP  RH WIND       PRES   REMARKS
SPRINGFIELD    PTCLDY    71  66  84 SE17      29.97R
JOPLIN         MOCLDY    75  71  87 SE9       29.92R

$$
MOZ032>034-039>042-045>050-055>058-069>072-260500-
...CENTRAL MISSOURI...

CITY           SKY/WX    TMP DP  RH WIND       PRES   REMARKS
COLUMBIA       CLEAR     72  65  78 S12       29.94S
JEFFERSON CITY CLEAR     73  65  75 SE5       29.94S
SEDALIA        CLEAR     74  66  76 S12       29.93S
WHITEMAN AFB   PTCLDY    74  69  82 S9        29.91R
WARRENSBURG    MOCLDY    73  64  73 SE10      29.90S

$$
MOZ051-052-059>065-260500-
...EAST CENTRAL MISSOURI...

CITY           SKY/WX    TMP DP  RH WIND       PRES   REMARKS
ST LOUIS INTL  CLEAR     75  65  70 S12       29.98S
SPIRIT OF STL  CLEAR     73  65  75 CALM      29.97R
ST CHARLES     CLEAR     74  65  73 S13       29.96S

$$
MOZ072>076-082>087-097>100-106>115-260500-
...SOUTH CENTRAL AND SOUTHEAST MISSOURI...

CITY           SKY/WX    TMP DP  RH WIND       PRES   REMARKS
CAPE GIRARDEAU CLEAR     67  64  90 S7        30.04R
FARMINGTON     CLEAR     69  66  90 S7        30.03R
POPLAR BLUFF   CLEAR     68  65  90 S3        30.03S
WEST PLAINS    PTCLDY    71  67  87 S8        30.04S

$$




USA.gov is the U.S. government's official web portal to all federal, state and local government web resources and services.